| time (UTC) | temp F | wind direction | speed MPH | gust MPH | rain 1hr in | rain 24hr in | rain mn in | humidity % | barometer mb |
| 20260506174420 | 62 | 226 | 2.0 | 2.0 | 0.05 | 0.04 | 0.04 | 99 | 1013.9 |
| 20260506173419 | 63 | 188 | 0.0 | 0.0 | 0.12 | 0.04 | 0.04 | 99 | 1014.4 |
| 20260506172419 | 64 | 165 | 0.0 | 0.0 | 0.12 | 0.03 | 0.03 | 96 | 1014.5 |
| 20260506171419 | 65 | 182 | 1.0 | 1.0 | 0.05 | 0.01 | 0.01 | 92 | 1014.8 |
| 20260506170419 | 67 | 258 | 2.0 | 3.0 | 0.00 | 0.00 | 0.00 | 87 | 1014.6 |
| 20260506165416 | 67 | 173 | 0.0 | 0.0 | 0.00 | 0.00 | 0.00 | 87 | 1014.8 |
| 20260506164414 | 68 | 174 | 0.0 | 1.0 | 0.00 | 0.00 | 0.00 | 85 | 1014.7 |
| 20260506163413 | 69 | 160 | 1.0 | 2.0 | 0.00 | 0.00 | 0.00 | 82 | 1014.8 |
| 20260506162412 | 68 | 172 | 2.0 | 2.0 | 0.00 | 0.00 | 0.00 | 81 | 1014.5 |
| 20260506161407 | 68 | 176 | 0.0 | 0.0 | 0.00 | 0.00 | 0.00 | 82 | 1014.9 |
| 20260506160407 | 68 | 172 | 0.0 | 0.0 | 0.00 | 0.00 | 0.00 | 81 | 1015.2 |
| 20260506155403 | 67 | 188 | 1.0 | 1.0 | 0.00 | 0.00 | 0.00 | 82 | 1015.1 |
| 20260506153525 | 66 | 130 | 1.0 | 1.0 | 0.00 | 0.00 | 0.00 | 84 | 1015.6 |
| 20260506152524 | 66 | 185 | 0.0 | 0.0 | 0.00 | 0.00 | 0.00 | 84 | 1015.8 |
| 20260506151520 | 66 | 66 | 2.0 | 2.0 | 0.00 | 0.00 | 0.00 | 84 | 1016.0 |
| 20260506150519 | 65 | 179 | 1.0 | 1.0 | 0.00 | 0.00 | 0.00 | 85 | 1016.1 |
| 20260506145519 | 65 | 182 | 1.0 | 1.0 | 0.00 | 0.00 | 0.00 | 85 | 1015.9 |
| 20260506144519 | 65 | 170 | 1.0 | 2.0 | 0.00 | 0.00 | 0.00 | 85 | 1016.2 |
| 20260506143514 | 64 | 146 | 1.0 | 2.0 | 0.00 | 0.00 | 0.00 | 85 | 1016.0 |
| 20260506142509 | 64 | 175 | 2.0 | 2.0 | 0.00 | 0.00 | 0.00 | 86 | 1016.3 |
| 20260506141505 | 65 | 242 | 3.0 | 3.0 | 0.00 | 0.00 | 0.00 | 85 | 1016.1 |
| 20260506140500 | 65 | 191 | 0.0 | 1.0 | 0.00 | 0.00 | 0.00 | 85 | 1016.1 |
| 20260506135500 | 65 | 331 | 2.0 | 2.0 | 0.00 | 0.00 | 0.00 | 86 | 1015.8 |
| 20260506134458 | 64 | 223 | 2.0 | 2.0 | 0.00 | 0.00 | 0.00 | 86 | 1015.7 |
| 20260506133457 | 63 | 185 | 2.0 | 5.0 | 0.00 | 0.00 | 0.00 | 88 | 1016.0 |
| 20260506132456 | 63 | 226 | 2.0 | 2.0 | 0.00 | 0.00 | 0.00 | 87 | 1015.8 |
| 20260506131457 | 63 | 266 | 0.0 | 1.0 | 0.00 | 0.00 | 0.00 | 88 | 1015.9 |
| 20260506130456 | 63 | 285 | 1.0 | 1.0 | 0.00 | 0.00 | 0.00 | 88 | 1016.3 |
| 20260506125452 | 62 | 201 | 0.0 | 1.0 | 0.00 | 0.00 | 0.00 | 89 | 1016.2 |
| 20260506124447 | 62 | 202 | 1.0 | 2.0 | 0.00 | 0.00 | 0.00 | 89 | 1016.3 |
| 20260506123442 | 62 | 194 | 0.0 | 0.0 | 0.00 | 0.00 | 0.00 | 89 | 1016.5 |
| 20260506122442 | 61 | 207 | 1.0 | 1.0 | 0.00 | 0.00 | 0.00 | 91 | 1016.4 |
| 20260506121437 | 60 | 182 | 0.0 | 0.0 | 0.00 | 0.00 | 0.00 | 92 | 1016.6 |
| 20260506120437 | 60 | 193 | 1.0 | 1.0 | 0.00 | 0.00 | 0.00 | 92 | 1016.6 |
| 20260506115432 | 60 | 233 | 1.0 | 1.0 | 0.00 | 0.00 | 0.00 | 93 | 1016.6 |
| 20260506114428 | 59 | 176 | 0.0 | 0.0 | 0.00 | 0.00 | 0.00 | 93 | 1016.7 |
| 20260506113424 | 59 | 173 | 0.0 | 0.0 | 0.00 | 0.00 | 0.00 | 93 | 1016.7 |
| 20260506112424 | 59 | 188 | 0.0 | 0.0 | 0.00 | 0.00 | 0.00 | 93 | 1016.6 |
| 20260506111419 | 59 | 178 | 0.0 | 0.0 | 0.00 | 0.00 | 0.00 | 93 | 1016.3 |
| 20260506110414 | 59 | 80 | 1.0 | 2.0 | 0.00 | 0.00 | 0.00 | 93 | 1016.6 |
| 20260506105412 | 58 | 206 | 0.0 | 0.0 | 0.00 | 0.00 | 0.00 | 95 | 1016.8 |
| 20260506104407 | 58 | 172 | 0.0 | 0.0 | 0.00 | 0.00 | 0.00 | 95 | 1016.7 |
| 20260506103402 | 58 | 170 | 0.0 | 1.0 | 0.00 | 0.00 | 0.00 | 95 | 1016.9 |
| 20260506102357 | 57 | 140 | 0.0 | 0.0 | 0.00 | 0.00 | 0.00 | 95 | 1016.8 |
| 20260506101356 | 57 | 168 | 0.0 | 0.0 | 0.00 | 0.00 | 0.00 | 96 | 1016.2 |
| 20260506100352 | 57 | 190 | 0.0 | 0.0 | 0.00 | 0.00 | 0.00 | 96 | 1016.6 |
| 20260506095347 | 57 | 179 | 0.0 | 0.0 | 0.00 | 0.00 | 0.00 | 95 | 1016.4 |
| 20260506094343 | 57 | 139 | 1.0 | 1.0 | 0.00 | 0.00 | 0.00 | 95 | 1016.3 |
| 20260506093343 | 57 | 173 | 0.0 | 0.0 | 0.00 | 0.00 | 0.00 | 94 | 1016.5 |
| 20260506092339 | 57 | 188 | 0.0 | 1.0 | 0.00 | 0.00 | 0.00 | 94 | 1016.3 |
| 20260506091339 | 57 | 151 | 0.0 | 2.0 | 0.00 | 0.00 | 0.00 | 94 | 1016.3 |
| 20260506090339 | 58 | 188 | 0.0 | 0.0 | 0.00 | 0.00 | 0.00 | 93 | 1016.3 |
| 20260506085338 | 58 | 182 | 0.0 | 0.0 | 0.00 | 0.00 | 0.00 | 92 | 1016.2 |
| 20260506084337 | 59 | 250 | 1.0 | 2.0 | 0.00 | 0.00 | 0.00 | 92 | 1016.5 |
| 20260506083337 | 59 | 142 | 0.0 | 0.0 | 0.00 | 0.00 | 0.00 | 91 | 1016.5 |
| 20260506082337 | 59 | 178 | 0.0 | 1.0 | 0.00 | 0.00 | 0.00 | 91 | 1016.6 |
| 20260506081337 | 59 | 136 | 0.0 | 1.0 | 0.00 | 0.00 | 0.00 | 91 | 1016.2 |
| 20260506080337 | 59 | 219 | 1.0 | 1.0 | 0.00 | 0.00 | 0.00 | 90 | 1016.5 |
| 20260506073327 | 60 | 165 | 0.0 | 0.0 | 0.00 | 0.00 | 0.00 | 88 | 1016.3 |
| 20260506072327 | 59 | 177 | 0.0 | 0.0 | 0.00 | 0.00 | 0.00 | 88 | 1016.5 |
| 20260506071323 | 59 | 163 | 0.0 | 0.0 | 0.00 | 0.00 | 0.00 | 87 | 1016.3 |
| 20260506070322 | 59 | 198 | 1.0 | 1.0 | 0.00 | 0.00 | 0.00 | 87 | 1016.4 |
| 20260506062306 | 60 | 188 | 0.0 | 0.0 | 0.00 | 0.00 | 0.00 | 83 | 1016.1 |
| 20260506061304 | 60 | 179 | 1.0 | 1.0 | 0.00 | 0.00 | 0.00 | 83 | 1016.3 |
| 20260506060300 | 61 | 181 | 1.0 | 1.0 | 0.00 | 0.00 | 0.00 | 82 | 1016.3 |
| 20260506051249 | 62 | 248 | 1.0 | 2.0 | 0.00 | 0.00 | 0.00 | 78 | 1016.3 |
| 20260506050244 | 62 | 183 | 1.0 | 1.0 | 0.00 | 0.00 | 0.00 | 78 | 1016.3 |
| 20260506044243 | 62 | 194 | 0.0 | 1.0 | 0.00 | 0.00 | 0.00 | 77 | 1016.5 |
| 20260506043238 | 62 | 193 | 1.0 | 1.0 | 0.00 | 0.00 | 0.00 | 77 | 1016.6 |
| 20260506042235 | 62 | 179 | 0.0 | 0.0 | 0.00 | 0.00 | 0.00 | 78 | 1016.6 |
| 20260506041230 | 63 | 183 | 0.0 | 0.0 | 0.00 | 0.00 | 0.00 | 76 | 1016.6 |
| 20260506040230 | 63 | 170 | 0.0 | 0.0 | 0.00 | 0.00 | 0.00 | 76 | 1016.5 |
| 20260506035229 | 63 | 151 | 0.0 | 0.0 | 0.00 | 0.00 | 0.00 | 75 | 1016.4 |
| 20260506034229 | 63 | 208 | 1.0 | 1.0 | 0.00 | 0.00 | 0.00 | 76 | 1016.5 |
| 20260506033230 | 63 | 176 | 0.0 | 0.0 | 0.00 | 0.00 | 0.00 | 75 | 1016.7 |
| 20260506032229 | 63 | 179 | 0.0 | 0.0 | 0.00 | 0.00 | 0.00 | 74 | 1016.5 |
| 20260506031229 | 64 | 200 | 1.0 | 2.0 | 0.00 | 0.00 | 0.00 | 73 | 1016.4 |
| 20260506030224 | 64 | 168 | 1.0 | 1.0 | 0.00 | 0.00 | 0.00 | 73 | 1016.4 |
| 20260506025223 | 64 | 166 | 0.0 | 0.0 | 0.00 | 0.00 | 0.00 | 73 | 1016.5 |
| 20260506024223 | 65 | 193 | 1.0 | 1.0 | 0.00 | 0.00 | 0.00 | 71 | 1016.5 |
| 20260506023222 | 65 | 275 | 3.0 | 7.0 | 0.00 | 0.00 | 0.00 | 71 | 1016.6 |
| 20260506022217 | 65 | 194 | 0.0 | 0.0 | 0.00 | 0.00 | 0.00 | 71 | 1016.2 |
| 20260506021217 | 66 | 184 | 0.0 | 0.0 | 0.00 | 0.00 | 0.00 | 71 | 1016.3 |
| 20260506020212 | 66 | 125 | 0.0 | 0.0 | 0.00 | 0.00 | 0.00 | 70 | 1016.1 |
| 20260506015213 | 66 | 187 | 0.0 | 0.0 | 0.00 | 0.00 | 0.00 | 70 | 1016.1 |
| 20260506014211 | 66 | 202 | 2.0 | 2.0 | 0.00 | 0.00 | 0.00 | 69 | 1016.3 |
| 20260506013206 | 67 | 179 | 0.0 | 0.0 | 0.00 | 0.00 | 0.00 | 69 | 1015.9 |
| 20260506012204 | 67 | 317 | 1.0 | 1.0 | 0.00 | 0.00 | 0.00 | 68 | 1016.0 |
| 20260506011203 | 67 | 116 | 0.0 | 0.0 | 0.00 | 0.00 | 0.00 | 68 | 1015.9 |
| 20260506010159 | 68 | 125 | 1.0 | 1.0 | 0.00 | 0.00 | 0.00 | 67 | 1015.8 |
| 20260506005159 | 68 | 151 | 0.0 | 1.0 | 0.00 | 0.00 | 0.00 | 67 | 1015.6 |
| 20260506004158 | 69 | 125 | 0.0 | 1.0 | 0.00 | 0.00 | 0.00 | 66 | 1015.6 |
| 20260506003156 | 69 | 226 | 0.0 | 1.0 | 0.00 | 0.00 | 0.00 | 64 | 1015.3 |
| 20260506002154 | 70 | 239 | 2.0 | 3.0 | 0.00 | 0.00 | 0.00 | 63 | 1015.1 |
| 20260506001153 | 70 | 182 | 0.0 | 0.0 | 0.00 | 0.00 | 0.00 | 63 | 1015.0 |
| 20260506000148 | 71 | 57 | 5.0 | 7.0 | 0.00 | 0.00 | 0.00 | 62 | 1014.8 |
| 20260505235148 | 71 | 222 | 1.0 | 2.0 | 0.00 | 0.00 | 0.00 | 61 | 1014.5 |
| 20260505234148 | 71 | 131 | 1.0 | 2.0 | 0.00 | 0.00 | 0.00 | 61 | 1014.3 |
| 20260505233148 | 72 | 237 | 2.0 | 3.0 | 0.00 | 0.00 | 0.00 | 61 | 1014.1 |
| 20260505232143 | 73 | 189 | 1.0 | 1.0 | 0.00 | 0.00 | 0.00 | 59 | 1013.8 |
| 20260505231138 | 73 | 137 | 3.0 | 3.0 | 0.00 | 0.00 | 0.00 | 58 | 1013.7 |
| 20260505230138 | 74 | 37 | 2.0 | 5.0 | 0.00 | 0.00 | 0.00 | 57 | 1013.5 |
| 20260505225137 | 74 | 197 | 3.0 | 3.0 | 0.00 | 0.00 | 0.00 | 56 | 1013.5 |
| 20260505224137 | 75 | 252 | 3.0 | 3.0 | 0.00 | 0.00 | 0.00 | 55 | 1013.4 |
| 20260505223136 | 76 | 197 | 0.0 | 0.0 | 0.00 | 0.00 | 0.00 | 54 | 1013.2 |
| 20260505222134 | 76 | 180 | 2.0 | 2.0 | 0.00 | 0.00 | 0.00 | 53 | 1013.2 |
| 20260505221134 | 77 | 182 | 1.0 | 1.0 | 0.00 | 0.00 | 0.00 | 53 | 1012.9 |
| 20260505220129 | 77 | 46 | 4.0 | 7.0 | 0.00 | 0.00 | 0.00 | 52 | 1012.9 |
| 20260505215124 | 78 | 73 | 1.0 | 2.0 | 0.00 | 0.00 | 0.00 | 52 | 1012.8 |
| 20260505214119 | 78 | 121 | 2.0 | 3.0 | 0.00 | 0.00 | 0.00 | 52 | 1012.6 |
| 20260505213118 | 78 | 357 | 7.0 | 9.0 | 0.00 | 0.00 | 0.00 | 51 | 1012.3 |
| 20260505212118 | 79 | 29 | 11.0 | 16.0 | 0.00 | 0.00 | 0.00 | 51 | 1012.1 |
| 20260505211118 | 79 | 175 | 2.0 | 2.0 | 0.00 | 0.00 | 0.00 | 51 | 1012.5 |
| 20260505210117 | 79 | 260 | 8.0 | 14.0 | 0.00 | 0.00 | 0.00 | 51 | 1012.3 |
| 20260505205113 | 80 | 97 | 1.0 | 1.0 | 0.00 | 0.00 | 0.00 | 51 | 1012.2 |
| 20260505204107 | 80 | 62 | 1.0 | 2.0 | 0.00 | 0.00 | 0.00 | 49 | 1012.2 |
| 20260505203106 | 81 | 120 | 2.0 | 2.0 | 0.00 | 0.00 | 0.00 | 48 | 1012.2 |
| 20260505202104 | 81 | 134 | 3.0 | 5.0 | 0.00 | 0.00 | 0.00 | 48 | 1012.2 |
| 20260505201059 | 81 | 279 | 3.0 | 3.0 | 0.00 | 0.00 | 0.00 | 47 | 1012.3 |
| 20260505200059 | 81 | 162 | 1.0 | 1.0 | 0.00 | 0.00 | 0.00 | 48 | 1012.3 |
| 20260505195059 | 82 | 173 | 4.0 | 6.0 | 0.00 | 0.00 | 0.00 | 49 | 1012.3 |
| 20260505194057 | 82 | 107 | 1.0 | 3.0 | 0.00 | 0.00 | 0.00 | 48 | 1012.5 |
| 20260505193058 | 83 | 156 | 3.0 | 5.0 | 0.00 | 0.00 | 0.00 | 46 | 1012.1 |
| 20260505192053 | 83 | 99 | 1.0 | 1.0 | 0.00 | 0.00 | 0.00 | 46 | 1012.5 |
| 20260505191049 | 85 | 78 | 3.0 | 3.0 | 0.00 | 0.00 | 0.00 | 41 | 1012.3 |
| 20260505190046 | 85 | 300 | 4.0 | 6.0 | 0.00 | 0.00 | 0.00 | 39 | 1012.6 |
| 20260505185045 | 84 | 129 | 0.0 | 0.0 | 0.00 | 0.00 | 0.00 | 40 | 1013.0 |
| 20260505184044 | 83 | 318 | 7.0 | 8.0 | 0.00 | 0.00 | 0.00 | 43 | 1012.8 |
| 20260505183045 | 81 | 91 | 3.0 | 3.0 | 0.00 | 0.00 | 0.00 | 48 | 1012.8 |
| 20260505182043 | 84 | 248 | 3.0 | 6.0 | 0.00 | 0.00 | 0.00 | 47 | 1013.0 |
| 20260505181043 | 82 | 138 | 1.0 | 1.0 | 0.00 | 0.00 | 0.00 | 48 | 1013.2 |
| 20260505180043 | 84 | 210 | 2.0 | 2.0 | 0.00 | 0.00 | 0.00 | 48 | 1013.3 |
| 20260505175040 | 83 | 241 | 1.0 | 2.0 | 0.00 | 0.00 | 0.00 | 48 | 1013.5 |